Tracking 29892 objects as of 21-Nov-2024
HD Live streaming from Space Station
objects crossing your sky now

COSMOS 1275 DEB

Track COSMOS 1275 DEB now!
10-day predictions


NORAD ID: 12947
Int'l Code: 1981-053EB
Perigee: 952.1 km
Apogee: 1,248.7 km
Inclination: 83.1 °
Period: 107.1 minutes
Semi major axis: 7471 km
RCS: 0.0298 m2 (small)
Launch date: June 4, 1981
Source: Commonwealth of Independent States (former USSR) (CIS)
Launch site: PLESETSK MISSILE AND SPACE COMPLEX (PKMTR)

Note: This is SATELLITE DEBRIS
Your satellite tracking list
Your tracking list is empty




NASA's NSSDC Master Catalog

Two Line Element Set (TLE):
1 12947U 81053EB  24324.57334626  .00001197  00000-0  18109-2 0  9990
2 12947  83.0923 153.4889 0198525 262.0621 153.4587 13.44307429103900
Source of the keplerian elements: AFSPC